Terminal Aerodrome Forecast
Issued by NWS Newport/Morehead City, NC

Home | Current Version | Previous Version | Graphics & Text | Print | Product List | Glossary On
Versions: 1 2 3 4 5 6 7 8 9 10 11 12 13 14 15
554
FTUS42 KMHX 050336 AAA
TAFEWN
TAF AMD
KEWN 050336Z 0504/0524 33015G22KT 5SM -RA BR SCT003 OVC007
     FM051200 33015G23KT P6SM VCSH SCT007 OVC010
     FM051400 34015G23KT P6SM OVC015
     FM051600 34015G20KT P6SM SCT035=

USA.gov is the U.S. government's official web portal to all federal, state and local government web resources and services.